This demonstration page uses our WeatherBlox Daily Observations layout. Learn more.

Left ArrowRight Arrow

Hourly Observations for July 18, 2016

Temp ( °F °C ) Dew Point ( °F °C ) Humidity (%) Winds ( mph kmh ) Pressure ( in mb ) Visibility ( mi km ) Precip ( " mm )
12:15 am 00:15 Clear 74 23.2 70 21.2 89 89 NNE 7 11 29.97 1015 10 16 N/A
12:35 am 00:35 Clear 73 23 70 21.1 89 89 E 8 13 29.97 1015 10 16 N/A
12:55 am 00:55 Clear 73 22.5 69 20.8 90 90 N 5 7 30.00 1016 10 16 N/A
1:15 am 01:15 Clear 73 22.5 69 20.8 90 90 NE 6 9 29.97 1015 10 16 N/A
1:35 am 01:35 Clear 72 22.3 69 20.8 91 91 NNE 7 11 29.97 1015 10 16 N/A
1:55 am 01:55 Clear 72 22.2 69 20.6 91 91 ENE 7 11 29.97 1015 10 16 N/A
2:15 am 02:15 Clear 72 22 69 20.5 91 91 NE 6 9 29.97 1015 10 16 N/A
2:35 am 02:35 Clear 71 21.5 69 20.4 93 93 NNE 6 9 29.97 1015 7 11 N/A
2:55 am 02:55 Clear with Mist and Fog 71 21.5 69 20.5 94 94 N 7 11 29.97 1015 5 8 N/A
3:15 am 03:15 Partly Cloudy with Mist and Fog 71 21.7 69 20.8 95 95 NNE 6 9 29.97 1015 3 5 N/A
3:35 am 03:35 Cloudy with Mist and Fog 72 22 70 21.1 95 95 NE 9 15 29.97 1015 3 5 N/A
3:55 am 03:55 Partly Cloudy with Mist and Fog 72 22.1 70 21.3 95 95 NE 7 11 29.97 1015 3 5 N/A
4:15 am 04:15 Clear with Mist and Fog 72 22.1 70 21.3 95 95 NE 7 11 29.97 1015 3 4 N/A
4:35 am 04:35 Mostly Cloudy with Mist and Fog 72 22 70 21.2 95 95 NE 6 9 29.97 1015 3 4 N/A
4:55 am 04:55 Cloudy with Mist and Fog 72 22.1 71 21.4 96 96 NE 12 19 29.97 1015 2 3 N/A
5:15 am 05:15 Cloudy with Mist and Fog 72 22.2 71 21.5 96 96 NE 10 17 29.97 1015 1 2 N/A
5:35 am 05:35 Cloudy with Mist and Fog 72 22.2 71 21.5 96 96 ENE 10 17 29.97 1015 2 3 N/A
5:55 am 05:55 Cloudy with Mist and Fog 72 22.2 71 21.5 96 96 ENE 12 19 29.97 1015 2 3 N/A
6:15 am 06:15 Cloudy with Mist and Fog 72 22.2 71 21.5 96 96 ENE 9 15 30.00 1016 2 3 N/A
6:35 am 06:35 Cloudy with Mist and Fog 72 22.2 71 21.5 96 96 ENE 8 13 30.00 1016 2 3 N/A
6:55 am 06:55 Cloudy with Mist and Fog 72 22.2 71 21.4 95 95 ENE 8 13 30.00 1016 2 3 N/A
7:15 am 07:15 Cloudy with Mist and Fog 72 22.2 71 21.5 96 96 E 6 9 30.00 1016 1 2 N/A
7:35 am 07:35 Cloudy with Mist and Fog 72 22.2 71 21.5 96 96 E 3 6 30.00 1016 2 3 N/A
7:55 am 07:55 Partly Cloudy with Mist and Fog 72 22.4 71 21.5 95 95 ENE 5 7 30.00 1016 3 4 N/A
8:15 am 08:15 Sunny with Mist and Fog 73 23 71 21.5 91 91 ENE 6 9 30.00 1016 4 6 N/A
8:35 am 08:35 Sunny 75 23.7 71 21.6 88 88 NE 6 9 30.00 1016 7 11 N/A
8:55 am 08:55 Sunny 76 24.3 71 21.7 85 85 ENE 6 9 29.97 1015 7 11 N/A
9:15 am 09:15 Sunny 76 24.7 70 21.2 81 81 E 10 17 29.97 1015 10 16 N/A
9:35 am 09:35 Sunny 76 24.6 70 21 80 80 E 10 17 29.97 1015 10 16 N/A
9:55 am 09:55 Sunny 76 24.5 70 21 81 81 E 12 19 29.97 1015 10 16 N/A
10:15 am 10:15 Sunny 78 25.6 70 21.1 76 76 SE 5 7 30.00 1016 10 16 N/A
10:35 am 10:35 Sunny 80 26.4 69 20.6 71 71 SE 5 7 30.00 1016 10 16 N/A
10:55 am 10:55 Sunny 80 26.6 69 20.3 68 68 ESE 6 9 30.00 1016 10 16 N/A
11:15 am 11:15 Sunny 80 26.9 69 20.3 67 67 ESE 5 7 30.00 1016 10 16 N/A
11:35 am 11:35 Partly Cloudy 81 27.3 69 20.5 66 66 SSE 3 6 30.00 1016 10 16 N/A
11:55 am 11:55 Partly Cloudy 82 27.8 70 21.1 67 67 E 6 9 30.00 1016 10 16 N/A
12:15 pm 12:15 Partly Cloudy 82 27.8 69 20.7 65 65 E 7 11 30.00 1016 10 16 N/A
12:35 pm 12:35 Partly Cloudy 83 28.1 70 20.9 65 65 ESE 7 11 29.97 1015 10 16 N/A
12:55 pm 12:55 Partly Cloudy 83 28.2 69 20.4 63 63 E 7 11 29.97 1015 10 16 N/A
1:15 pm 13:15 Partly Cloudy 84 28.7 69 20.7 62 62 E 13 20 29.97 1015 10 16 N/A
1:35 pm 13:35 Sunny 84 28.7 70 21 63 63 E 13 20 29.97 1015 10 16 N/A
1:55 pm 13:55 Sunny 84 28.7 70 20.9 63 63 E 7 11 29.97 1015 10 16 N/A
2:15 pm 14:15 Sunny 85 29.2 70 21.2 62 62 ESE 12 19 29.97 1015 10 16 N/A
2:35 pm 14:35 Sunny 85 29.2 70 21 61 61 ESE 14 22 29.97 1015 10 16 N/A
2:55 pm 14:55 Partly Cloudy 85 29.3 70 21.1 61 61 ESE 12 19 29.97 1015 10 16 N/A
3:15 pm 15:15 Partly Cloudy 86 30.1 70 21 58 58 E 10 17 29.97 1015 10 16 N/A
3:35 pm 15:35 Partly Cloudy 87 30.5 70 21.1 57 57 SE 12 19 29.97 1015 10 16 N/A
3:55 pm 15:55 Partly Cloudy 87 30.6 68 20.1 53 53 ESE 12 19 29.97 1015 10 16 N/A
4:15 pm 16:15 Sunny 87 30.3 69 20.5 56 56 ESE 13 20 29.97 1015 10 16 N/A
4:35 pm 16:35 Sunny 87 30.8 70 20.9 56 56 ESE 13 20 29.97 1015 10 16 N/A
4:55 pm 16:55 Sunny 87 30.8 70 21.2 57 57 E 14 22 29.94 1014 10 16 N/A
5:15 pm 17:15 Sunny 88 31 70 21.1 56 56 ESE 13 20 29.94 1014 10 16 N/A
5:35 pm 17:35 Sunny 88 31.3 69 20.7 53 53 ESE 15 24 29.94 1014 10 16 N/A
5:55 pm 17:55 Sunny 89 31.5 70 21 54 54 ESE 12 19 29.94 1014 10 16 N/A
6:15 pm 18:15 Sunny 89 31.4 70 21 54 54 SE 10 17 29.94 1014 10 16 N/A
6:35 pm 18:35 Sunny 88 31.3 68 20.1 51 51 SE 12 19 29.94 1014 10 16 N/A
6:55 pm 18:55 Sunny 88 31.2 69 20.7 54 54 SE 9 15 29.94 1014 10 16 N/A
7:15 pm 19:15 Sunny 88 31.1 70 21.1 55 55 SE 8 13 29.94 1014 10 16 N/A
7:35 pm 19:35 Sunny 87 30.6 70 21 57 57 SE 8 13 29.94 1014 10 16 N/A
7:55 pm 19:55 Sunny 86 30.1 70 21.2 59 59 ESE 6 9 29.94 1014 10 16 N/A
8:15 pm 20:15 Sunny 84 28.9 71 21.5 64 64 SE 6 9 29.94 1014 10 16 N/A
8:35 pm 20:35 Sunny 82 27.8 72 22 71 71 ESE 5 7 29.94 1014 10 16 N/A
8:55 pm 20:55 Sunny 79 26 73 22.5 81 81 ESE 7 11 29.97 1015 10 16 N/A
9:15 pm 21:15 Clear 78 25.5 72 22.3 83 83 ESE 7 11 29.94 1014 10 16 N/A
9:35 pm 21:35 Clear 77 25 72 22.1 84 84 E 8 13 29.97 1015 10 16 N/A
9:55 pm 21:55 Clear 78 25.5 72 22 81 81 E 7 11 29.97 1015 10 16 N/A
10:15 pm 22:15 Clear 77 25 71 21.7 82 82 E 9 15 29.97 1015 10 16 N/A
10:35 pm 22:35 Clear 78 25.3 71 21.7 81 81 E 8 13 29.97 1015 10 16 N/A
10:55 pm 22:55 Clear 77 25.1 71 21.7 81 81 E 8 13 29.97 1015 10 16 N/A
11:15 pm 23:15 Clear 76 24.5 71 21.7 84 84 E 8 13 29.97 1015 10 16 N/A
11:35 pm 23:35 Clear 75 24.1 71 21.7 87 87 ESE 9 15 29.97 1015 10 16 N/A
11:55 pm 23:55 Clear 76 24.5 71 21.7 84 84 SE 6 9 30.00 1016 10 16 N/A

Powered by AerisWeather